sat.trackr.live / text

‹ back to catalog

STARLINK-33908

NORAD 63700 · 2025-087D

PAYLOAD ACTIVE UNKNOWN

§ Identity

Operator
Country
US
Launch date
2025-04-28
Launch site
AFWTR
Launch vehicle
Mass (kg)
RCS (m²)

Purposes: comms

External: N2YO · Heavens-Above · Gunter

§ Orbital elements

Epoch: 2026-09-20T13:03:40.696992Z

Period
93.85 min
Inclination
53.1598°
Eccentricity
0.0001750
Mean motion
15.34420539 rev/d
Perigee alt
461.4 km
Apogee alt
463.8 km
Semi-major
6,840.8 km
B*
4.8889e-4
RAAN
33.7062°
Arg perigee
82.1030°
Mean anomaly
278.0172°
Rev number
7,904

§ Raw data

STARLINK-339081 63700U 25087D   26263.54422103  .00016188  00000+0  48889-3 0  99912 63700  53.1598  33.7062 0001750  82.1030 278.0172 15.34420539 79040

JSON: /api/v1/satellites/63700 · /tle

For live sub-satellite position, see the globe view (requires WebGL).

§ Visibility from observer

Set your observer location to see the next 7 days of passes ≥ 10°. The values pass through the URL so the page stays shareable.

No JS? Fill the form by hand. The geolocation button needs JavaScript.